Weather History for Preston, MN

Change the Weather History Date:

Monday, March 10, 2014

  Actual Average (KRST) Record (KRST)
Temperature  
Mean Temperature 42 °F 30 °F  
Max Temperature 46 °F 37 °F 63 °F (1977)
Min Temperature 37 °F 22 °F -15 °F (1948)
Degree Days  
Heating Degree Days 24 35  
Month to date heating degree days 374  
Since 1 July heating degree days 6235  
Cooling Degree Days 0 0  
Month to date cooling degree days 0  
Year to date cooling degree days 0  
Moisture  
Dew Point 33 °F    
Average Humidity 73    
Maximum Humidity 84    
Minimum Humidity 64    
Precipitation  
Precipitation 0.00 in 0.05 in 1.37 in (1941)
Month to date precipitation 0.49  
Year to date precipitation 2.18  
Snow  
Snow 0.00 in 0.30 in 10.80 in (1956)
Month to date snowfall 3.4  
Since 1 July snowfall 43.3  
Snow Depth -    
Sea Level Pressure  
Sea Level Pressure 29.67 in    
Wind  
Wind Speed 9 mph (West)    
Max Wind Speed 15 mph    
Max Gust Speed 20 mph    
Visibility 10 miles    
Events      
T = Trace of Precipitation, MM = Missing Value Source: NWS Daily Summary

Daily Weather History Graph

Daily Weather History Graph

Search for Another Location

Airport:

Trip Planner

Search our weather history database for the weather conditions in past years. The results will help you decide how hot, cold, wet, or windy it might be!

Date:

Astronomy

Mar. 10, 2014 Rise Set
Actual Time 7:29 AM CDT 7:08 PM CDT
Civil Twilight 7:01 AM CDT 7:37 PM CDT
Nautical Twilight 6:27 AM CDT 8:10 PM CDT
Astronomical Twilight 5:54 AM CDT 8:44 PM CDT
Moon 1:45 PM CDT (3/10) 3:49 AM CDT (3/10)
Length of Visible Light 12h 36m
Length of Day
11h 39m
Waxing Gibbous, 70% of the Moon is Illuminated
Mar 10
Waxing Gibbous
Mar 16
Full
Mar 23
Last Quarter
Mar 30
New
Apr 7
First Quarter

Hourly Weather History & Observations

Time (CDT) Temp. Windchill Dew Point Humidity Pressure Visibility Wind Dir Wind Speed Gust Speed Precip Events Conditions
12:11 AM 39.7 °F 34.3 °F 34.0 °F 80% 29.70 in 10.0 mi West 8.1 mph - N/A   Scattered Clouds
12:31 AM 40.5 °F 34.6 °F 34.3 °F 79% 29.69 in 10.0 mi WSW 9.2 mph - N/A   Mostly Cloudy
12:50 AM 40.5 °F 34.6 °F 34.2 °F 78% 29.68 in 10.0 mi WSW 9.2 mph - N/A   Mostly Cloudy
1:11 AM 40.3 °F 34.4 °F 34.0 °F 78% 29.69 in 10.0 mi WSW 9.2 mph - N/A   Scattered Clouds
1:30 AM 40.6 °F 35.4 °F 34.0 °F 77% 29.68 in 10.0 mi SW 8.1 mph - N/A   Clear
1:51 AM 37.6 °F 32.3 °F 32.9 °F 83% 29.68 in 10.0 mi SSW 6.9 mph - N/A   Clear
2:10 AM 37.6 °F 33.1 °F 33.1 °F 84% 29.68 in 10.0 mi SSW 5.8 mph - N/A   Clear
2:31 AM 37.4 °F 30.3 °F 33.1 °F 84% 29.66 in 10.0 mi SSW 10.4 mph - N/A   Clear
2:50 AM 38.3 °F 31.4 °F 33.3 °F 82% 29.66 in 10.0 mi SSW 10.4 mph - N/A   Clear
3:11 AM 38.5 °F 33.4 °F 33.4 °F 82% 29.65 in 10.0 mi SW 6.9 mph - N/A   Clear
3:30 AM 40.8 °F 35.0 °F 34.0 °F 77% 29.66 in 10.0 mi WSW 9.2 mph - N/A   Clear
3:51 AM 38.3 °F 31.9 °F 33.1 °F 81% 29.65 in 10.0 mi SSW 9.2 mph - N/A   Clear
4:10 AM 38.3 °F 32.5 °F 32.9 °F 81% 29.65 in 10.0 mi SW 8.1 mph - N/A   Clear
4:31 AM 38.7 °F 32.9 °F 32.9 °F 80% 29.65 in 10.0 mi SW 8.1 mph - N/A   Clear
4:51 AM 38.3 °F 32.5 °F 32.7 °F 80% 29.65 in 10.0 mi SW 8.1 mph - N/A   Clear
5:11 AM 39.2 °F 33.0 °F 32.9 °F 78% 29.64 in 10.0 mi WSW 9.2 mph - N/A   Clear
5:30 AM 41.5 °F 35.0 °F 32.9 °F 71% 29.64 in 10.0 mi WSW 11.5 mph - N/A   Clear
5:51 AM 41.9 °F 35.4 °F 32.5 °F 69% 29.64 in 10.0 mi WSW 11.5 mph - N/A   Clear
6:11 AM 41.5 °F 34.6 °F 32.4 °F 70% 29.64 in 10.0 mi WSW 12.7 mph - N/A   Clear
6:30 AM 41.9 °F 35.4 °F 32.2 °F 68% 29.65 in 10.0 mi WSW 11.5 mph - N/A   Clear
6:51 AM 41.4 °F 34.3 °F 32.0 °F 69% 29.65 in 10.0 mi WSW 12.7 mph 19.6 mph N/A   Clear
7:11 AM 40.6 °F 33.8 °F 32.0 °F 71% 29.65 in 10.0 mi WSW 11.5 mph - N/A   Clear
7:31 AM 40.1 °F 32.7 °F 32.0 °F 73% 29.65 in 10.0 mi WSW 12.7 mph - N/A   Clear
7:51 AM 39.6 °F 32.1 °F 32.0 °F 74% 29.66 in 10.0 mi West 12.7 mph - N/A   Clear
8:10 AM 40.1 °F 33.2 °F 32.0 °F 73% 29.66 in 10.0 mi West 11.5 mph - N/A   Clear
8:31 AM 40.8 °F 33.7 °F 32.2 °F 71% 29.66 in 10.0 mi WSW 12.7 mph - N/A   Clear
8:51 AM 41.2 °F 33.7 °F 32.5 °F 71% 29.66 in 10.0 mi WSW 13.8 mph - N/A   Clear
9:10 AM 43.0 °F 36.0 °F 33.1 °F 68% 29.67 in 10.0 mi West 13.8 mph - N/A   Clear
9:31 AM 42.8 °F 36.2 °F 32.9 °F 68% 29.67 in 10.0 mi West 12.7 mph - N/A   Clear
9:51 AM 43.2 °F 36.2 °F 33.3 °F 68% 29.68 in 10.0 mi West 13.8 mph - N/A   Clear
10:10 AM 43.0 °F 36.0 °F 33.3 °F 69% 29.67 in 10.0 mi West 13.8 mph - N/A   Clear
10:31 AM 44.6 °F 38.4 °F 34.0 °F 66% 29.67 in 10.0 mi West 12.7 mph - N/A   Clear
10:50 AM 43.7 °F 37.3 °F 33.8 °F 68% 29.68 in 10.0 mi West 12.7 mph - N/A   Clear
11:11 AM 43.3 °F 36.1 °F 33.8 °F 69% 29.68 in 10.0 mi West 15.0 mph - N/A   Clear
11:31 AM 44.1 °F 37.1 °F 34.0 °F 68% 29.68 in 10.0 mi West 15.0 mph - N/A   Clear
11:51 AM 44.2 °F 37.6 °F 34.2 °F 68% 29.68 in 10.0 mi West 13.8 mph - N/A   Clear
12:11 PM 45.5 °F 39.6 °F 34.7 °F 66% 29.68 in 10.0 mi West 12.7 mph - N/A   Clear
12:30 PM 45.5 °F 39.2 °F 34.7 °F 66% 29.68 in 10.0 mi West 13.8 mph - N/A   Clear
12:51 PM 45.3 °F 39.7 °F 34.9 °F 67% 29.69 in 10.0 mi West 11.5 mph - N/A   Clear
1:11 PM 45.9 °F 41.2 °F 35.1 °F 66% 29.68 in 10.0 mi West 9.2 mph - N/A   Clear
1:30 PM 46.0 °F 40.6 °F 34.9 °F 65% 29.68 in 10.0 mi WNW 11.5 mph - N/A   Clear
1:51 PM 45.5 °F 38.9 °F 34.7 °F 66% 29.67 in 10.0 mi WNW 15.0 mph - N/A   Clear
2:11 PM 45.1 °F 38.8 °F 34.9 °F 67% 29.66 in 10.0 mi WNW 13.8 mph - N/A   Clear
2:31 PM 45.5 °F 40.8 °F 34.9 °F 66% 29.65 in 10.0 mi WNW 9.2 mph - N/A   Clear
2:51 PM 46.4 °F 41.9 °F 35.2 °F 65% 29.66 in 10.0 mi West 9.2 mph - N/A   Clear
3:11 PM 45.5 °F 41.3 °F 35.1 °F 67% 29.65 in 10.0 mi WNW 8.1 mph - N/A   Clear
3:31 PM 45.1 °F 39.5 °F 34.0 °F 65% 29.66 in 10.0 mi WNW 11.5 mph - N/A   Clear
3:51 PM 45.1 °F 39.9 °F 33.8 °F 65% 29.65 in 10.0 mi WNW 10.4 mph - N/A   Clear
4:11 PM 44.6 °F 39.7 °F 33.8 °F 66% 29.65 in 10.0 mi WNW 9.2 mph - N/A   Clear
4:31 PM 44.2 °F 39.7 °F 33.4 °F 66% 29.66 in 10.0 mi WNW 8.1 mph - N/A   Clear
4:51 PM 44.6 °F 40.7 °F 33.3 °F 64% 29.66 in 10.0 mi WNW 6.9 mph - N/A   Clear
5:10 PM 44.8 °F 41.0 °F 34.7 °F 68% 29.66 in 10.0 mi West 6.9 mph - N/A   Clear
5:31 PM 43.0 °F 37.7 °F 33.8 °F 70% 29.66 in 10.0 mi West 9.2 mph - N/A   Clear
5:51 PM 41.9 °F 35.9 °F 33.8 °F 73% 29.66 in 10.0 mi West 10.4 mph - N/A   Clear
6:11 PM 41.0 °F 35.2 °F 33.4 °F 74% 29.66 in 10.0 mi WNW 9.2 mph - N/A   Clear
6:31 PM 39.0 °F 34.8 °F 33.1 °F 79% 29.66 in 10.0 mi NW 5.8 mph - N/A   Clear
6:51 PM 41.2 °F 37.3 °F 33.3 °F 73% 29.67 in 10.0 mi NNW 5.8 mph - N/A   Clear
7:11 PM 39.6 °F 34.0 °F 33.1 °F 78% 29.68 in 10.0 mi WNW 8.1 mph - N/A   Clear
7:31 PM 40.3 °F 36.3 °F 33.3 °F 76% 29.68 in 10.0 mi NW 5.8 mph - N/A   Clear
7:51 PM 41.2 °F 36.6 °F 33.3 °F 73% 29.68 in 10.0 mi NNW 6.9 mph - N/A   Clear
8:11 PM 40.5 °F 35.1 °F 33.3 °F 75% 29.69 in 10.0 mi NW 8.1 mph - N/A   Clear
8:31 PM 39.6 °F 35.4 °F 33.1 °F 78% 29.70 in 10.0 mi NW 5.8 mph - N/A   Clear
8:51 PM 39.2 °F 35.9 °F 33.1 °F 79% 29.71 in 10.0 mi West 4.6 mph - N/A   Clear
9:11 PM 39.7 °F 34.9 °F 33.3 °F 78% 29.71 in 10.0 mi West 6.9 mph - N/A   Clear
9:31 PM 39.9 °F 36.7 °F 33.1 °F 77% 29.71 in 10.0 mi WNW 4.6 mph - N/A   Clear
9:51 PM 38.7 °F 34.3 °F 32.9 °F 80% 29.71 in 10.0 mi NW 5.8 mph - N/A   Clear
10:11 PM 38.8 °F 35.4 °F 33.1 °F 80% 29.71 in 10.0 mi NNW 4.6 mph - N/A   Clear
10:31 PM 39.9 °F 36.7 °F 33.1 °F 77% 29.71 in 10.0 mi NW 4.6 mph - N/A   Clear
10:50 PM 38.7 °F 35.2 °F 32.9 °F 80% 29.71 in 10.0 mi West 4.6 mph - N/A   Clear
11:11 PM 38.3 °F 34.8 °F 32.9 °F 81% 29.71 in 10.0 mi NW 4.6 mph - N/A   Clear
11:31 PM 38.8 °F 36.5 °F 32.9 °F 79% 29.70 in 10.0 mi NW 3.5 mph - N/A   Scattered Clouds
11:50 PM 38.8 °F 35.4 °F 32.9 °F 79% 29.69 in 10.0 mi NNW 4.6 mph - N/A   Scattered Clouds